This is the latest recevied weather packets stored in our database for station/object KC9DRE. If no packets are shown the sender has not sent any weather packets the latest 10 day(s).
| Time | Temp. | Humidity | Pressure | Rain* | Wind** | Luminosity | Snow |
|---|---|---|---|---|---|---|---|
| 1777148795 | 25° C | 43% | 1011 hPa | 0 mm | - | 612 W/m² | - |
| 1777148492 | 25.56° C | 47% | 1011 hPa | 0 mm | - | 628 W/m² | - |
| 1777148187 | 26.11° C | 43% | 1011 hPa | 0 mm | - | 660 W/m² | - |
| 1777147884 | 25.56° C | 43% | 1011.2 hPa | 0 mm | - | 672 W/m² | - |
| 1777147581 | 25° C | 44% | 1011.1 hPa | 0 mm | - | 669 W/m² | - |
| 1777147275 | 24.44° C | 47% | 1011.4 hPa | 0 mm | - | 683 W/m² | - |
| 1777146971 | 23.33° C | 46% | 1011.3 hPa | 0 mm | - | 704 W/m² | - |
| 1777146668 | 23.89° C | 49% | 1011.3 hPa | 0 mm | - | 165 W/m² | - |
| 1777146363 | 24.44° C | 45% | 1011.6 hPa | 0 mm | - | 791 W/m² | - |
| 1777146060 | 25° C | 50% | 1011.3 hPa | 0 mm | - | 783 W/m² | - |
| 1777145756 | 25° C | 49% | 1011.4 hPa | 0 mm | - | 818 W/m² | - |
| 1777145452 | 25.56° C | 47% | 1011.6 hPa | 0 mm | - | 790 W/m² | - |
| 1777145146 | 25.56° C | 44% | 1011.6 hPa | 0 mm | - | 827 W/m² | - |
| 1777144842 | 24.44° C | 49% | 1011.4 hPa | 0 mm | - | 821 W/m² | - |
| 1777144541 | 24.44° C | 52% | 1011.4 hPa | 0 mm | - | 810 W/m² | - |
| 1777144238 | 24.44° C | 48% | 1011.6 hPa | 0 mm | - | 797 W/m² | - |
| 1777143934 | 25.56° C | 45% | 1011.7 hPa | 0 mm | - | 773 W/m² | - |
| 1777143630 | 25° C | 51% | 1011.6 hPa | 0 mm | - | 883 W/m² | - |
| 1777143327 | 24.44° C | 45% | 1011.6 hPa | 0 mm | - | 861 W/m² | - |
| 1777143022 | 24.44° C | 48% | 1011.8 hPa | 0 mm | - | 842 W/m² | - |
| 1777142718 | 24.44° C | 50% | 1011.7 hPa | 0 mm | - | 841 W/m² | - |
| 1777142416 | 24.44° C | 47% | 1011.8 hPa | 0 mm | - | 846 W/m² | - |
| 1777142116 | 23.89° C | 50% | 1011.7 hPa | 0 mm | - | 848 W/m² | - |
| 1777141812 | 24.44° C | 47% | 1011.7 hPa | 0 mm | - | 855 W/m² | - |
| 1777141509 | 24.44° C | 52% | 1011.9 hPa | 0 mm | - | 875 W/m² | - |
* Rain latest hour (hover to see other rain measurements)
** Current wind speed in m/s (hover to see current wind gust speed)